TimeEEST,TemperatureF,Dew PointF,Humidity,Sea Level PressureIn,VisibilityMPH,Wind Direction,Wind SpeedMPH,Gust SpeedMPH,PrecipitationIn,Events,Conditions,WindDirDegrees,DateUTC
12:20 AM,62.6,48.2,59,30.04,-9999.0,NNW,5.8,-,N/A,,Clear,340,2012-09-23 21:20:00
12:50 AM,62.6,50.0,63,30.04,-9999.0,North,6.9,-,N/A,,Clear,350,2012-09-23 21:50:00
1:20 AM,62.6,48.2,59,30.04,-9999.0,Variable,5.8,-,N/A,,Clear,0,2012-09-23 22:20:00
1:50 AM,62.6,50.0,63,30.04,-9999.0,North,6.9,-,N/A,,Clear,360,2012-09-23 22:50:00
2:20 AM,60.8,48.2,63,30.04,-9999.0,North,8.1,-,N/A,,Clear,350,2012-09-23 23:20:00
2:50 AM,60.8,50.0,68,30.04,-9999.0,NNW,5.8,-,N/A,,Clear,330,2012-09-23 23:50:00
3:00 AM,60,49,58,30.04,6,NNW,5.8,,,,,330,2012-09-24 00:00:00
3:20 AM,60.8,50.0,68,30.04,-9999.0,North,6.9,-,N/A,,Clear,360,2012-09-24 00:20:00
3:50 AM,59.0,48.2,67,30.04,-9999.0,North,8.1,-,N/A,,Clear,350,2012-09-24 00:50:00
4:20 AM,59.0,48.2,67,30.04,-9999.0,North,9.2,-,N/A,,Clear,360,2012-09-24 01:20:00
4:50 AM,59.0,48.2,67,30.04,-9999.0,Calm,Calm,-,N/A,,Clear,0,2012-09-24 01:50:00
5:20 AM,59.0,48.2,67,30.04,-9999.0,North,2.3,-,N/A,,Clear,350,2012-09-24 02:20:00
5:50 AM,57.2,48.2,72,30.04,-9999.0,NNW,4.6,-,N/A,,Clear,340,2012-09-24 02:50:00
6:20 AM,57.2,50.0,77,30.04,-9999.0,NNW,4.6,-,N/A,,Clear,340,2012-09-24 03:20:00
6:50 AM,57.2,50.0,77,30.04,-9999.0,Variable,2.3,-,N/A,,Clear,0,2012-09-24 03:50:00
7:20 AM,60.8,51.8,72,30.04,-9999.0,Variable,2.3,-,N/A,,Clear,0,2012-09-24 04:20:00
7:50 AM,62.6,53.6,72,30.04,-9999.0,Variable,2.3,-,N/A,,Clear,0,2012-09-24 04:50:00
8:20 AM,66.2,55.4,68,30.04,-9999.0,Variable,3.5,-,N/A,,Clear,0,2012-09-24 05:20:00
8:50 AM,68.0,57.2,68,30.04,-9999.0,ESE,3.5,-,N/A,,Clear,110,2012-09-24 05:50:00
9:00 AM,68,56,56,30.04,6,ESE,3.5,,,,,110,2012-09-24 06:00:00
9:20 AM,69.8,57.2,64,30.04,-9999.0,Variable,3.5,-,N/A,,Clear,0,2012-09-24 06:20:00
9:50 AM,69.8,55.4,60,30.04,-9999.0,South,4.6,-,N/A,,Clear,170,2012-09-24 06:50:00
10:20 AM,71.6,55.4,57,30.04,-9999.0,SSE,3.5,-,N/A,,Clear,150,2012-09-24 07:20:00
10:50 AM,71.6,57.2,60,30.04,-9999.0,South,5.8,-,N/A,,Clear,180,2012-09-24 07:50:00
11:20 AM,71.6,57.2,60,30.01,-9999.0,South,5.8,-,N/A,,Clear,190,2012-09-24 08:20:00
11:50 AM,73.4,59.0,61,30.01,-9999.0,South,5.8,-,N/A,,Clear,190,2012-09-24 08:50:00
12:20 PM,73.4,57.2,57,30.01,-9999.0,Variable,5.8,-,N/A,,Clear,0,2012-09-24 09:20:00
12:50 PM,73.4,57.2,57,30.01,-9999.0,SSW,5.8,-,N/A,,Clear,200,2012-09-24 09:50:00
1:20 PM,73.4,55.4,53,29.98,-9999.0,SSW,4.6,-,N/A,,Clear,210,2012-09-24 10:20:00
1:50 PM,75.2,55.4,50,29.98,-9999.0,SW,5.8,-,N/A,,Clear,230,2012-09-24 10:50:00
2:20 PM,75.2,55.4,50,29.98,-9999.0,SW,6.9,-,N/A,,Clear,220,2012-09-24 11:20:00
2:50 PM,75.2,55.4,50,29.95,-9999.0,WSW,6.9,-,N/A,,Clear,240,2012-09-24 11:50:00
3:00 PM,75,56,40,29.97,6,WSW,6.9,,,,,240,2012-09-24 12:00:00
3:20 PM,77.0,55.4,47,29.95,-9999.0,SW,5.8,-,N/A,,Clear,230,2012-09-24 12:20:00
3:50 PM,75.2,55.4,50,29.95,-9999.0,SW,5.8,-,N/A,,Clear,230,2012-09-24 12:50:00
4:20 PM,75.2,57.2,53,29.92,-9999.0,WSW,8.1,-,N/A,,Clear,240,2012-09-24 13:20:00
4:50 PM,75.2,57.2,53,29.92,-9999.0,SW,6.9,-,N/A,,Clear,230,2012-09-24 13:50:00
5:20 PM,73.4,57.2,57,29.92,-9999.0,WSW,6.9,-,N/A,,Clear,240,2012-09-24 14:20:00
5:50 PM,73.4,57.2,57,29.92,-9999.0,WSW,4.6,-,N/A,,Clear,240,2012-09-24 14:50:00
6:20 PM,73.4,57.2,57,29.92,-9999.0,SW,3.5,-,N/A,,Clear,220,2012-09-24 15:20:00
6:50 PM,71.6,59.0,64,29.92,-9999.0,WSW,4.6,-,N/A,,Clear,240,2012-09-24 15:50:00
7:20 PM,69.8,59.0,68,29.92,-9999.0,WSW,3.5,-,N/A,,Clear,240,2012-09-24 16:20:00
7:50 PM,71.6,59.0,64,29.92,-9999.0,Variable,2.3,-,N/A,,Clear,0,2012-09-24 16:50:00
8:20 PM,71.6,55.4,57,29.92,-9999.0,Variable,2.3,-,N/A,,Clear,0,2012-09-24 17:20:00
8:50 PM,73.4,57.2,57,29.89,-9999.0,Variable,4.6,-,N/A,,Clear,0,2012-09-24 17:50:00
9:00 PM,74,56,44,29.91,6,SE,4.6,,,,,140,2012-09-24 18:00:00
9:20 PM,73.4,59.0,61,29.92,-9999.0,Variable,3.5,-,N/A,,Clear,0,2012-09-24 18:20:00
9:50 PM,71.6,59.0,64,29.89,-9999.0,Variable,1.2,-,N/A,,Clear,0,2012-09-24 18:50:00
10:20 PM,69.8,59.0,68,29.89,-9999.0,Variable,1.2,-,N/A,,Clear,0,2012-09-24 19:20:00
10:50 PM,66.2,57.2,73,29.89,-9999.0,Variable,1.2,-,N/A,,Clear,0,2012-09-24 19:50:00
11:20 PM,68.0,60.8,78,29.89,-9999.0,Variable,1.2,-,N/A,,Clear,0,2012-09-24 20:20:00
11:50 PM,64.4,57.2,77,29.89,-9999.0,WNW,2.3,-,N/A,,Clear,300,2012-09-24 20:50:00